• In Czech Republic
  • List of Countries
  • For 7 days
  • Water Temperature
  • Satellite Maps
  • Weather Map
  • Weather Widgets
  • user-avatar
    Login

    Hourly Weather Bregenz

    Today, 26 September, Tuesday

    Time Temperature Precipitation Wind Pressure Humidity
    00:00 +5°C° 0 mm 1 mps 648 mmHg 84%
    01:00 +5°C° 0 mm 1 mps 648 mmHg 83%
    02:00 +5°C° 0 mm 1 mps 647 mmHg 83%
    03:00 +5°C° 0 mm 1 mps 647 mmHg 83%
    04:00 +5°C° 0 mm 1 mps 647 mmHg 83%
    05:00 +5°C° 0 mm 1 mps 647 mmHg 83%
    06:00 +5°C° 0 mm 1 mps 648 mmHg 82%
    07:00 +5°C° 0 mm 1 mps 648 mmHg 82%
    08:00 +8°C° 0 mm 1 mps 649 mmHg 74%
    09:00 +10°C° 0 mm 1 mps 649 mmHg 66%
    10:00 +12°C° 0 mm 0 mps 650 mmHg 59%
    11:00 +14°C° 0 mm 1 mps 650 mmHg 56%
    12:00 +14°C° 0 mm 1 mps 650 mmHg 54%
    13:00 +15°C° 0 mm 1 mps 650 mmHg 52%
    14:00 +15°C° 0.1 mm 1 mps 650 mmHg 57%
    15:00 +14°C° 0.1 mm 1 mps 650 mmHg 61%
    16:00 +13°C° 0.1 mm 1 mps 650 mmHg 66%
    17:00 +11°C° 0.1 mm 1 mps 650 mmHg 74%
    18:00 +10°C° 0.1 mm 1 mps 649 mmHg 82%
    19:00 +8°C° 0.1 mm 1 mps 649 mmHg 91%
    20:00 +7°C° 0 mm 1 mps 649 mmHg 91%
    21:00 +7°C° 0 mm 1 mps 649 mmHg 92%
    22:00 +7°C° 0 mm 1 mps 650 mmHg 92%
    23:00 +7°C° 0 mm 1 mps 650 mmHg 91%

    Tomorrow, 27 September, Wednesday

    Time Temperature Precipitation Wind Pressure Humidity
    00:00 +7°C° 0 mm 1 mps 650 mmHg 91%
    01:00 +6°C° 0 mm 1 mps 650 mmHg 90%
    02:00 +6°C° 0 mm 1 mps 649 mmHg 90%
    03:00 +6°C° 0 mm 1 mps 649 mmHg 90%
    04:00 +6°C° 0 mm 1 mps 649 mmHg 90%
    05:00 +6°C° 0 mm 1 mps 650 mmHg 89%
    06:00 +6°C° 0 mm 1 mps 650 mmHg 88%
    07:00 +6°C° 0 mm 1 mps 650 mmHg 87%
    08:00 +9°C° 0 mm 1 mps 651 mmHg 80%
    09:00 +10°C° 0 mm 0 mps 651 mmHg 72%
    10:00 +13°C° 0 mm 0 mps 652 mmHg 64%
    11:00 +15°C° 0.1 mm 1 mps 652 mmHg 61%
    12:00 +15°C° 0.1 mm 1 mps 652 mmHg 59%
    13:00 +16°C° 0.1 mm 1 mps 652 mmHg 57%
    14:00 +16°C° 0.3 mm 1 mps 652 mmHg 60%
    15:00 +15°C° 0.3 mm 1 mps 652 mmHg 64%
    16:00 +15°C° 0.3 mm 1 mps 652 mmHg 68%
    17:00 +13°C° 0.2 mm 1 mps 651 mmHg 75%
    18:00 +11°C° 0.2 mm 1 mps 651 mmHg 82%
    19:00 +9°C° 0.2 mm 1 mps 651 mmHg 89%
    20:00 +8°C° 0 mm 1 mps 651 mmHg 89%
    21:00 +8°C° 0 mm 1 mps 651 mmHg 89%
    22:00 +8°C° 0 mm 1 mps 651 mmHg 89%
    23:00 +7°C° 0 mm 1 mps 651 mmHg 89%

    Day after tomorrow, 28 September, Thursday

    Time Temperature Precipitation Wind Pressure Humidity
    00:00 +7°C° 0 mm 1 mps 651 mmHg 88%
    01:00 +7°C° 0 mm 1 mps 651 mmHg 88%
    02:00 +7°C° 0 mm 1 mps 651 mmHg 87%
    03:00 +7°C° 0 mm 1 mps 651 mmHg 86%
    04:00 +7°C° 0 mm 1 mps 651 mmHg 86%
    05:00 +7°C° 0 mm 1 mps 651 mmHg 85%
    06:00 +7°C° 0 mm 1 mps 652 mmHg 84%
    07:00 +7°C° 0 mm 1 mps 652 mmHg 82%
    08:00 +10°C° 0 mm 1 mps 652 mmHg 75%
    09:00 +12°C° 0 mm 1 mps 653 mmHg 67%
    10:00 +13°C° 0 mm 0 mps 654 mmHg 60%
    11:00 +15°C° 0 mm 1 mps 654 mmHg 58%
    12:00 +16°C° 0 mm 1 mps 654 mmHg 55%
    13:00 +18°C° 0 mm 1 mps 654 mmHg 53%
    14:00 +16°C° 0 mm 1 mps 654 mmHg 56%
    15:00 +16°C° 0 mm 1 mps 654 mmHg 58%
    16:00 +16°C° 0 mm 1 mps 653 mmHg 61%
    17:00 +14°C° 0 mm 1 mps 653 mmHg 70%
    18:00 +11°C° 0 mm 1 mps 653 mmHg 80%
    19:00 +9°C° 0 mm 1 mps 652 mmHg 89%
    20:00 +9°C° 0 mm 1 mps 652 mmHg 89%
    21:00 +9°C° 0 mm 1 mps 652 mmHg 89%
    22:00 +8°C° 0 mm 1 mps 652 mmHg 89%
    23:00 +8°C° 0 mm 1 mps 652 mmHg 88%

    29 September, Friday

    Time Temperature Precipitation Wind Pressure Humidity
    00:00 +8°C° 0 mm 1 mps 652 mmHg 88%
    01:00 +8°C° 0 mm 1 mps 652 mmHg 87%
    02:00 +8°C° 0 mm 1 mps 651 mmHg 86%
    03:00 +8°C° 0 mm 1 mps 651 mmHg 85%
    04:00 +8°C° 0 mm 1 mps 651 mmHg 84%
    05:00 +8°C° 0 mm 1 mps 651 mmHg 83%
    06:00 +8°C° 0 mm 1 mps 651 mmHg 82%
    07:00 +8°C° 0 mm 1 mps 651 mmHg 81%
    08:00 +10°C° 0 mm 1 mps 652 mmHg 75%
    09:00 +12°C° 0 mm 1 mps 652 mmHg 69%
    10:00 +14°C° 0 mm 1 mps 653 mmHg 63%
    11:00 +15°C° 0.1 mm 1 mps 653 mmHg 62%
    12:00 +15°C° 0.1 mm 1 mps 653 mmHg 60%
    13:00 +16°C° 0.1 mm 1 mps 653 mmHg 59%
    14:00 +15°C° 0.2 mm 1 mps 652 mmHg 64%
    15:00 +15°C° 0.2 mm 1 mps 652 mmHg 69%
    16:00 +14°C° 0.2 mm 1 mps 652 mmHg 74%
    17:00 +13°C° 0.2 mm 1 mps 651 mmHg 80%
    18:00 +11°C° 0.2 mm 1 mps 651 mmHg 85%
    19:00 +9°C° 0.2 mm 1 mps 651 mmHg 91%
    20:00 +9°C° 0 mm 1 mps 651 mmHg 90%
    21:00 +9°C° 0 mm 1 mps 651 mmHg 90%
    22:00 +8°C° 0 mm 1 mps 650 mmHg 90%
    23:00 +8°C° 0 mm 1 mps 650 mmHg 89%

    30 September, Saturday

    Time Temperature Precipitation Wind Pressure Humidity
    00:00 +8°C° 0 mm 1 mps 650 mmHg 88%
    01:00 +7°C° 0 mm 1 mps 650 mmHg 87%
    02:00 +7°C° 0 mm 1 mps 649 mmHg 86%
    03:00 +7°C° 0 mm 1 mps 649 mmHg 85%
    04:00 +7°C° 0 mm 1 mps 649 mmHg 85%
    05:00 +7°C° 0 mm 1 mps 649 mmHg 84%
    06:00 +7°C° 0 mm 1 mps 649 mmHg 84%
    07:00 +7°C° 0 mm 1 mps 649 mmHg 83%
    08:00 +10°C° 0 mm 1 mps 650 mmHg 77%
    09:00 +12°C° 0 mm 1 mps 650 mmHg 70%
    10:00 +13°C° 0 mm 0 mps 651 mmHg 64%
    11:00 +15°C° 0 mm 1 mps 650 mmHg 62%
    12:00 +16°C° 0 mm 1 mps 650 mmHg 61%
    13:00 +16°C° 0 mm 1 mps 650 mmHg 59%
    14:00 +16°C° 0.2 mm 1 mps 650 mmHg 64%
    15:00 +15°C° 0.2 mm 1 mps 649 mmHg 69%
    16:00 +15°C° 0.2 mm 1 mps 649 mmHg 74%
    17:00 +13°C° 0.3 mm 1 mps 649 mmHg 81%
    18:00 +11°C° 0.3 mm 1 mps 648 mmHg 88%
    19:00 +9°C° 0.3 mm 0 mps 648 mmHg 95%
    20:00 +9°C° 0.3 mm 0 mps 648 mmHg 95%
    21:00 +8°C° 0.3 mm 0 mps 648 mmHg 95%
    22:00 +8°C° 0.3 mm 0 mps 648 mmHg 95%
    23:00 +9°C° 0.2 mm 1 mps 648 mmHg 95%

    1 October, Sunday

    Time Temperature Precipitation Wind Pressure Humidity
    00:00 +9°C° 0.2 mm 1 mps 648 mmHg 95%
    01:00 +9°C° 0.2 mm 1 mps 648 mmHg 95%
    02:00 +9°C° 0.4 mm 1 mps 648 mmHg 95%
    03:00 +9°C° 0.4 mm 1 mps 648 mmHg 95%
    04:00 +9°C° 0.4 mm 1 mps 648 mmHg 95%
    05:00 +9°C° 0.6 mm 1 mps 648 mmHg 95%
    06:00 +9°C° 0.6 mm 1 mps 648 mmHg 96%
    07:00 +9°C° 0.6 mm 1 mps 648 mmHg 96%
    08:00 +10°C° 0.6 mm 1 mps 648 mmHg 95%
    09:00 +10°C° 0.6 mm 1 mps 648 mmHg 94%
    10:00 +9°C° 0.6 mm 2 mps 649 mmHg 94%
    11:00 +9°C° 0.4 mm 2 mps 649 mmHg 92%
    12:00 +9°C° 0.4 mm 2 mps 649 mmHg 91%
    13:00 +10°C° 0.4 mm 2 mps 649 mmHg 90%
    14:00 +11°C° 0.2 mm 1 mps 649 mmHg 89%
    15:00 +11°C° 0.2 mm 1 mps 649 mmHg 88%
    16:00 +11°C° 0.2 mm 1 mps 649 mmHg 87%
    17:00 +10°C° 0.1 mm 1 mps 649 mmHg 90%
    18:00 +8°C° 0.1 mm 0 mps 649 mmHg 93%
    19:00 +7°C° 0.1 mm 0 mps 649 mmHg 96%
    20:00 +7°C° 0 mm 0 mps 649 mmHg 96%
    21:00 +6°C° 0 mm 0 mps 649 mmHg 96%
    22:00 +7°C° 0 mm 1 mps 649 mmHg 96%
    23:00 +7°C° 0 mm 1 mps 649 mmHg 95%
    Show more